Winter Haven, FL

1:39 AM EST on February 08, 2016 (GMT -0500)
Winter Haven's-Gilbert

Weather History for KGIF - December, 2012

Change the Weather History Date:

Wednesday, December 12, 2012

  Actual Average Record
Temperature  
Mean Temperature 74 °F -  
Max Temperature 80 °F 76 °F 90 °F (1985)
Min Temperature 69 °F 51 °F 26 °F (1957)
Cooling Degree Days 10    
Growing Degree Days 24 (Base 50)    
Moisture  
Dew Point 69 °F    
Average Humidity 91    
Maximum Humidity 97    
Minimum Humidity 71    
Precipitation  
Precipitation 0.61 in - - ()
Sea Level Pressure  
Sea Level Pressure 30.05 in    
Wind  
Wind Speed 6 mph (SE)    
Max Wind Speed 15 mph    
Max Gust Speed 24 mph    
Visibility 7 miles    
Events Rain    
Averages and records for this station are not official NWS values.
T = Trace of Precipitation, MM = Missing Value Source: NWS Daily Summary

Daily Weather History Graph

Daily Weather History Graph

Search for Another Location

Airport or City:

Trip Planner

Search our weather history database for the weather conditions in past years. The results will help you decide how hot, cold, wet, or windy it might be!

Date:

Astronomy

Dec. 12, 2012 Rise Set
Actual Time 7:09 AM EST 5:32 PM EST
Civil Twilight 6:43 AM EST 5:58 PM EST
Nautical Twilight 6:14 AM EST 6:27 PM EST
Astronomical Twilight 5:45 AM EST 6:56 PM EST
Moon 6:14 AM EST (12/12) 5:06 PM EST (12/12)
Length of Visible Light 11h 14m
Length of Day
10h 23m
Waning Crescent, 1% of the Moon is Illuminated
Dec 12
Waning Crescent
Dec 13
New
Dec 20
First Quarter
Dec 28
Full
Jan 4
Last Quarter

Hourly Weather History & Observations

Time (EST) Temp. Heat Index Dew Point Humidity Pressure Visibility Wind Dir Wind Speed Gust Speed Precip Events Conditions
12:53 AM 72.0 °F - 70.0 °F 93% 30.04 in 9.0 mi ESE 5.8 mph - N/A   Partly Cloudy
1:07 AM 72.0 °F - 70.0 °F 93% 30.04 in 9.0 mi SE 5.8 mph - N/A   Mostly Cloudy
1:38 AM 72.0 °F - 70.0 °F 93% 30.05 in 9.0 mi East 3.5 mph - N/A   Overcast
1:53 AM 72.0 °F - 70.0 °F 93% 30.04 in 9.0 mi ESE 5.8 mph - N/A   Overcast
2:00 AM 72.0 °F - 70.0 °F 93% 30.04 in 10.0 mi SE 3.5 mph - N/A   Overcast
2:15 AM 71.1 °F - 70.0 °F 96% 30.03 in 4.0 mi ESE 4.6 mph - 0.03 in Rain Rain
2:27 AM 71.1 °F - 69.1 °F 93% 30.03 in 10.0 mi SE 8.1 mph - 0.03 in   Overcast
2:38 AM 71.1 °F - 69.1 °F 93% 30.04 in 9.0 mi SSE 6.9 mph - 0.03 in Rain Light Rain
2:48 AM 71.6 °F - 69.8 °F 94% 30.05 in 5.0 mi South 8.1 mph - 0.06 in Rain Light Rain
2:51 AM 71.6 °F - 69.8 °F 94% 30.04 in 2.5 mi Variable 5.8 mph - 0.13 in Rain Light Rain
2:53 AM 71.1 °F - 70.0 °F 96% 30.02 in 1.8 mi East 6.9 mph - 0.17 in Rain Heavy Rain
3:00 AM 71.1 °F - 69.1 °F 93% 30.03 in 2.0 mi ESE 5.8 mph - 0.02 in Rain Light Rain
3:02 AM 71.1 °F - 69.1 °F 93% 30.03 in 3.0 mi ESE 5.8 mph - 0.02 in Rain Light Rain
3:15 AM 71.1 °F - 69.1 °F 93% 30.03 in 9.0 mi ESE 6.9 mph - 0.02 in Rain Light Rain
3:25 AM 70.0 °F - 69.1 °F 97% 30.03 in 10.0 mi SE 6.9 mph - 0.02 in   Mostly Cloudy
3:53 AM 70.0 °F - 68.0 °F 93% 30.02 in 10.0 mi SE 8.1 mph - 0.02 in   Mostly Cloudy
4:02 AM 70.0 °F - 68.0 °F 93% 30.03 in 10.0 mi SE 10.4 mph - N/A   Scattered Clouds
4:53 AM 69.1 °F - 66.9 °F 93% 30.02 in 10.0 mi SSE 8.1 mph - N/A   Clear
5:53 AM 69.1 °F - 66.9 °F 93% 30.03 in 10.0 mi South 8.1 mph - N/A   Clear
6:53 AM 69.1 °F - 66.0 °F 90% 30.05 in 10.0 mi SSE 3.5 mph - N/A   Mostly Cloudy
7:53 AM 69.1 °F - 66.9 °F 93% 30.07 in 10.0 mi South 3.5 mph - N/A   Mostly Cloudy
8:53 AM 70.0 °F - 68.0 °F 93% 30.09 in 10.0 mi South 3.5 mph - N/A   Mostly Cloudy
9:53 AM 72.0 °F - 69.1 °F 91% 30.11 in 10.0 mi Calm Calm - N/A   Overcast
10:53 AM 73.0 °F - 70.0 °F 90% 30.10 in 10.0 mi South 5.8 mph - N/A   Overcast
11:53 AM 73.9 °F - 70.0 °F 87% 30.08 in 10.0 mi South 4.6 mph - N/A   Overcast
12:53 PM 75.9 °F - 71.1 °F 85% 30.04 in 10.0 mi South 6.9 mph - N/A   Overcast
1:30 PM 78.1 °F - 71.1 °F 79% 30.03 in 10.0 mi Variable 5.8 mph - N/A   Overcast
1:53 PM 80.1 °F 83.6 °F 71.1 °F 74% 30.02 in 10.0 mi Variable 6.9 mph - N/A   Scattered Clouds
2:53 PM 80.1 °F 83.2 °F 70.0 °F 71% 30.02 in 10.0 mi SW 5.8 mph - N/A   Mostly Cloudy
3:47 PM 75.2 °F - 69.8 °F 83% 30.03 in 2.0 mi SW 12.7 mph - 0.09 in Rain Rain
3:53 PM 75.0 °F - 68.0 °F 79% 30.03 in 2.0 mi SSW 15.0 mph 24.2 mph 0.11 in Rain Rain
3:55 PM 73.9 °F - 68.0 °F 82% 30.03 in 3.0 mi SSW 10.4 mph 24.2 mph 0.00 in Rain Light Rain
4:53 PM 75.0 °F - 71.1 °F 87% 30.04 in 10.0 mi SW 5.8 mph - 0.01 in   Mostly Cloudy
5:53 PM 73.9 °F - 71.1 °F 91% 30.04 in 9.0 mi SW 3.5 mph - N/A   Mostly Cloudy
6:53 PM 73.0 °F - 70.0 °F 90% 30.05 in 9.0 mi South 3.5 mph - N/A   Scattered Clouds
7:53 PM 72.0 °F - 70.0 °F 93% 30.05 in 5.0 mi Calm Calm - N/A   Scattered Clouds
8:01 PM 72.0 °F - 70.0 °F 93% 30.06 in 5.0 mi Calm Calm - N/A   Mostly Cloudy
8:32 PM 72.0 °F - 70.0 °F 93% 30.07 in 9.0 mi North 4.6 mph - N/A   Mostly Cloudy
8:46 PM 72.0 °F - 70.0 °F 93% 30.08 in 8.0 mi NE 4.6 mph - N/A   Mostly Cloudy
8:53 PM 72.0 °F - 70.0 °F 93% 30.07 in 9.0 mi NNE 3.5 mph - N/A   Mostly Cloudy
9:06 PM 71.1 °F - 69.1 °F 93% 30.08 in 3.0 mi North 10.4 mph 18.4 mph 0.10 in Rain Light Rain
9:08 PM 70.0 °F - 69.1 °F 97% 30.08 in 2.0 mi North 9.2 mph 18.4 mph 0.17 in Rain Heavy Rain
9:15 PM 70.0 °F - 69.1 °F 97% 30.08 in 1.0 mi Variable 5.8 mph - 0.30 in Rain Heavy Rain
9:20 PM 70.0 °F - 69.1 °F 97% 30.07 in 3.0 mi North 9.2 mph - 0.30 in Rain Light Rain
9:31 PM 70.0 °F - 68.0 °F 93% 30.08 in 9.0 mi North 5.8 mph - 0.30 in   Mostly Cloudy
9:41 PM 70.0 °F - 68.0 °F 93% 30.09 in 8.0 mi North 5.8 mph - 0.30 in   Mostly Cloudy
9:48 PM 69.8 °F - 68.0 °F 94% 30.08 in 8.0 mi NNE 5.8 mph - 0.30 in   Mostly Cloudy
9:49 PM 70.0 °F - 68.0 °F 93% 30.07 in 8.0 mi NNE 5.8 mph - 0.30 in   Mostly Cloudy
10:43 PM 69.1 °F - 68.0 °F 96% 30.09 in 7.0 mi North 4.6 mph - N/A   Overcast
10:53 PM 69.1 °F - 68.0 °F 96% 30.08 in 7.0 mi North 4.6 mph - N/A   Overcast
11:53 PM 69.1 °F - 68.0 °F 96% 30.08 in 2.5 mi North 8.1 mph - N/A   Overcast